Location: Asheville, NC
(35.6000°N, 82.5500°W)
Time: 12:05:12

Vanguard 2 Rocket - Pass Details

Date: 12 March 2018
Orbit: 554 x 3327 km, 32.9° (Epoch: 23 March)

Event Time Altitude Azimuth Distance (km) Brightness Sun altitude
Rises 19:38:36 0° 255° (WSW) 2,752 11.6 -1.5°
Reaches altitude 10° 19:40:35 10° 252° (WSW) 1,935 10.3 -1.9°
Maximum altitude 19:44:47 62° 171° (S) 819 6.7 -2.8°
Drops below altitude 10° 19:51:02 10° 92° (E) 2,857 8.8 -4.0°
Enters shadow 19:52:42 - 90° (E) 3,510 9.2 -4.4°
Sets 19:54:33 0° 89° (E) 4,227 - -4.8°
